Content
SEND FEEDBACK

Daily
Averages
Monthly
Summary
United States of America

RIKA'S LANDING, ALASKA


Home > North America > United States > Alaska
Elevation: 127 feet     Latitude: 64 09N     Longitude: 145 51W

WEATHER
 
SELECT A DAY
Number of Records: 189,678;   Date Range: 1/1/95 - 9/20/14
 
SHARE

PRINT THIS DATA

[ ← Previous Day ]
WEATHER ALMANAC - JANUARY 31, 2013
[ Next Day → ]
[ °C ]   °F
Weather ElementAverageHighLow
Temperature6.9 °F8.6 °F (3:06 pm)3 °F (1:53 am)
Dewpoint0.4 °F3.9 °F (5:53 pm)-6 °F (1:53 am)
Humidity74.9 %85 % (5:11 pm)66 % (1:53 am)
Barometer29.99 in30.20 in (11:53 pm)29.85 in (1:53 am)
Wind Speed8.2 mph25.3 mph (2:53 am)
Wind Gust32.2 mph (1:53 am)
Weather ElementAverage
Visibility6.5 mi
Wind DirectionE (90.8 °)

Weather ElementTotal
Precipitation0.06 in
Heating Degree Days59.2 (Base 65)
Averaged from 36 records on January 31, 2013
WEATHER CONDITIONS BREAKOUT
WIND DIRECTION BREAKOUT
WEATHER BY HOUR - JANUARY 31, 2013
[ °C ]   °F
Local TimeTemperatureDewpointHumidityBarometerVisibilityWind DirectionWind SpeedGust SpeedPrecipitationEventsConditions
1:53 AM3.0 °F-6.0 °F66 %29.85 in10.0 miESE (110°)24.2 mph32.2 mphClear
2:53 AM3.0 °F-6.0 °F66 %29.87 in10.0 miESE (110°)25.3 mph31.1 mphClear
3:53 AM3.0 °F-6.0 °F66 %29.87 in10.0 miESE (110°)25.3 mphClear
4:53 AM3.0 °F-6.0 °F66 %29.89 in10.0 miESE (120°)21.9 mph32.2 mphClear
5:53 AM3.0 °F-6.0 °F66 %29.90 in10.0 miESE (110°)15.0 mphClear
6:53 AM3.9 °F-5.1 °F66 %29.91 in10.0 miESE (120°)16.1 mph24.2 mphMostly Cloudy
7:53 AM3.9 °F-4.0 °F70 %29.93 in10.0 miESE (110°)10.4 mphMostly Cloudy
8:53 AM3.9 °F-4.0 °F70 %29.95 in10.0 miESE (110°)10.4 mphOvercast
9:53 AM5.0 °F-2.9 °F70 %29.96 in6.0 miESE (110°)15.0 mph0.00 inSnowLight Snow
10:53 AM6.1 °F-2.0 °F69 %29.98 in8.0 miESE (120°)16.1 mph21.9 mph0.00 inSnowLight Snow
11:53 AM6.1 °F-0.9 °F73 %29.99 in7.0 miESE (110°)11.5 mph0.00 inSnowLight Snow
12:53 PM7.0 °F0.0 °F73 %30.01 in9.0 miEast (100°)10.4 mph0.00 inSnowLight Snow
1:53 PM8.1 °F1.0 °F73 %30.03 in9.0 miEast (100°)4.6 mph0.00 inSnowLight Snow
2:53 PM8.1 °F1.0 °F73 %30.06 in7.0 miESE (110°)5.8 mph0.00 inSnowLight Snow
3:06 PM8.6 °F1.4 °F73 %29.92 in2.5 miSE (130°)5.8 mph0.00 inSnowLight Snow
3:15 PM8.6 °F1.4 °F73 %29.92 in1.0 miESE (110°)9.2 mph0.00 inSnowLight Snow
3:25 PM6.8 °F1.4 °F79 %29.92 in0.5 miESE (120°)8.1 mph0.01 inSnowSnow
3:32 PM8.6 °F1.4 °F73 %29.93 in1.0 miSE (130°)6.9 mph0.01 inSnowLight Snow
3:44 PM8.6 °F1.4 °F73 %29.93 in2.5 miSE (130°)5.8 mph0.01 inSnowLight Snow
3:53 PM8.1 °F1.9 °F76 %30.08 in2.0 miESE (110°)5.8 mph0.01 inSnowLight Snow
3:56 PM8.6 °F1.4 °F73 %29.94 in1.8 miESE (110°)5.8 mph0.00 inSnowLight Snow
4:12 PM8.6 °F1.4 °F73 %29.94 in2.0 miESE (110°)3.5 mph0.00 inSnowLight Snow
4:37 PM8.6 °F3.2 °F79 %29.94 in1.5 miSE (130°)5.8 mph0.00 inSnowLight Snow
4:53 PM8.1 °F3.0 °F80 %30.09 in3.0 miESE (110°)3.5 mph0.01 inSnowLight Snow
5:11 PM6.8 °F3.2 °F85 %29.95 in2.0 miESE (120°)4.6 mph0.00 inSnowLight Snow
5:26 PM8.6 °F3.2 °F79 %29.95 in3.0 miSE (130°)4.6 mph0.00 inSnowLight Snow
5:43 PM8.6 °F3.2 °F79 %29.96 in6.0 miCalm0.00 inSnowLight Snow
5:53 PM8.1 °F3.9 °F83 %30.11 in9.0 miCalm0.00 inSnowLight Snow
6:08 PM8.6 °F3.2 °F79 %29.97 in3.0 miEast (80°)3.5 mph0.00 inSnowLight Snow
6:53 PM8.1 °F3.9 °F83 %30.12 in9.0 miESE (110°)5.8 mph0.01 inSnowLight Snow
7:53 PM8.1 °F3.9 °F83 %30.14 in9.0 miCalm0.00 inSnowLight Snow
8:53 PM8.1 °F3.9 °F83 %30.15 in9.0 miEast (90°)3.5 mph0.00 inSnowLight Snow
9:53 PM8.1 °F3.9 °F83 %30.16 in10.0 miCalm0.00 inOvercast
10:53 PM8.1 °F3.9 °F83 %30.18 in10.0 miCalmOvercast
11:29 PM8.6 °F3.2 °F79 %30.05 in10.0 miCalmOvercast
11:53 PM8.1 °F3.0 °F80 %30.20 in10.0 miCalmOvercast
Hourly data recorded from PABI, located miles away from Rika's Landing, Alaska







STORIES FROM OUR PARTNERS